Hourly Data Report for August 23, 2017

All times are specified in Local Standard Time (LST). Add 1 hour to adjust for Daylight Saving Time where and when it is observed.

ST. STEPHEN
NEW BRUNSWICK

45°12'36.600" N
67°15'10.300" W
26.10 m
8104935
71607
WSS

Download Data

Hourly Data (August 2017)
Hourly Data Report for August 23, 2017
Temp Definition
°C
Dew Point Temp Definition
°C
Rel Hum Definition
%
Wind Dir Definition
10's deg

Wind Spd Definition
km/h
Visibility Definition
km
Stn Press Definition
kPa
Hmdx Definition


Wind Chill Definition


Weather Definition


TIME
00:00 19.8 19.0 96 18 10   100.13     LegendNANA
01:00 19.9 19.1 95 19 15   100.09     LegendNANA
02:00 20.1 19.0 94 19 17   100.01 27   LegendNANA
03:00 19.8 18.7 93 19 14   100.01     LegendNANA
04:00 19.7 18.8 94 18 10   99.97     LegendNANA
05:00 19.7 18.6 93 18 10   99.95     LegendNANA
06:00 19.7 18.4 92 18 9   99.95     LegendNANA
07:00 20.1 18.6 91 19 13   100.01 27   LegendNANA
08:00 20.8 18.9 89 21 9   100.04 27   LegendNANA
09:00 22.2 19.2 83 22 12   100.07 29   LegendNANA
10:00 23.2 19.4 79 22 13   100.07 30   LegendNANA
11:00 25.4 19.1 68 22 15   100.07 32   LegendNANA
12:00 26.6 19.0 63 19 12   100.02 33   LegendNANA
13:00 27.5 18.7 59 20 16   100.00 34   LegendNANA
14:00 25.9 16.7 57 27 12   100.05 31   LegendNANA
15:00 26.1 15.8 53 26 13   100.06 31   LegendNANA
16:00 26.4 15.3 50 27 11   100.05 31   LegendNANA
17:00 26.5 14.4 47 26 13   100.07 30   LegendNANA
18:00 26.0 12.8 44 24 14   100.11 29   LegendNANA
19:00 24.1 12.6 48 26 8   100.16 27   LegendNANA
20:00 21.7 12.4 56 26 5   100.26     LegendNANA
21:00 20.9 10.8 52 28 5   100.40     LegendNANA
22:00 17.6 11.3 67 29 3   100.44     LegendNANA
23:00 13.7 11.1 84 16 1   100.51     LegendNANA

Notes on Data Quality.

Legend

  • E = Estimated
  • M = Missing
  • NA = Not Available
  • ‡ = Partner data that is not subject to review by the National Climate Archives
Date modified: